,,,PA_Meas_PMT16A,,PR_Meas_QMR101_102,,RH_Meas_QMH101,,SR_Meas_QMS101,,TA_Meas_QMH101,,GenWind,,GenWind,
date,time,status,PA,status,PR,status,RH,status,SR,status,TA,status,DirAvg,status,SpdAvg,
2012-06-20, 00:00:04,VALID,1004.87,VALID,0,VALID,84.9934,VALID,0.0815089,VALID,25.8823,VALID,22,VALID,0.719531,
2012-06-20, 00:01:04,VALID,1004.86,VALID,0,VALID,84.9781,VALID,0,VALID,25.9018,VALID,68,VALID,0.592969,
2012-06-20, 00:02:04,VALID,1004.83,VALID,0,VALID,85.0925,VALID,0.0815089,VALID,25.8823,VALID,31,VALID,0.603125,
2012-06-20, 00:03:04,VALID,1004.84,VALID,0,VALID,85.2527,VALID,0,VALID,25.8434,VALID,27,VALID,0.485156,
2012-06-20, 00:04:04,VALID,1004.84,VALID,0,VALID,85.3214,VALID,0,VALID,25.8259,VALID,27,VALID,0.691797,
2012-06-20, 00:05:04,VALID,1004.8,VALID,0,VALID,85.3824,VALID,0,VALID,25.8044,VALID,24,VALID,0.551562,
2012-06-20, 00:06:04,VALID,1004.77,VALID,0,VALID,85.5198,VALID,0,VALID,25.8044,VALID,25,VALID,0.622656,
2012-06-20, 00:07:04,VALID,1004.76,VALID,0,VALID,85.3824,VALID,0,VALID,25.8259,VALID,25,VALID,0.499609,
2012-06-20, 00:08:04,VALID,1004.8,VALID,0,VALID,85.3595,VALID,0,VALID,25.8044,VALID,21,VALID,1.11563,
2012-06-20, 00:09:04,VALID,1004.79,VALID,0,VALID,85.4511,VALID,0,VALID,25.8064,VALID,18,VALID,0.825781,
2012-06-20, 00:10:04,VALID,1004.79,VALID,0,VALID,85.4816,VALID,0,VALID,25.8259,VALID,27,VALID,1.06602,
2012-06-20, 00:11:04,VALID,1004.76,VALID,0,VALID,85.3214,VALID,0,VALID,25.8434,VALID,26,VALID,0.807031,
2012-06-20, 00:12:04,VALID,1004.76,VALID,0,VALID,85.2985,VALID,0,VALID,25.8239,VALID,26,VALID,0.814453,
2012-06-20, 00:13:04,VALID,1004.72,VALID,0,VALID,85.4282,VALID,0,VALID,25.8259,VALID,25,VALID,0.66875,
2012-06-20, 00:14:04,VALID,1004.75,VALID,0,VALID,84.8866,VALID,0,VALID,25.8823,VALID,19,VALID,0.954297,
2012-06-20, 00:15:04,VALID,1004.75,VALID,0,VALID,84.4212,VALID,0,VALID,25.9992,VALID,35,VALID,0.908594,
2012-06-20, 00:16:04,VALID,1004.72,VALID,0,VALID,84.1847,VALID,0,VALID,26.0206,VALID,26,VALID,0.917188,
2012-06-20, 00:17:04,VALID,1004.7,VALID,0,VALID,84.2228,VALID,0,VALID,25.9992,VALID,20,VALID,0.83125,
2012-06-20, 00:18:04,VALID,1004.64,VALID,0,VALID,84.3296,VALID,0,VALID,26.0381,VALID,22,VALID,0.810547,
2012-06-20, 00:19:04,VALID,1004.63,VALID,0,VALID,84.4212,VALID,0,VALID,26.0401,VALID,23,VALID,0.744141,
2012-06-20, 00:20:04,VALID,1004.61,VALID,0,VALID,84.6348,VALID,0,VALID,25.9817,VALID,23,VALID,0.754687,
2012-06-20, 00:21:04,VALID,1004.54,VALID,0,VALID,84.8484,VALID,0,VALID,25.9622,VALID,27,VALID,0.701172,
2012-06-20, 00:22:04,VALID,1004.52,VALID,0,VALID,84.5738,VALID,0,VALID,25.9427,VALID,19,VALID,1.00859,
2012-06-20, 00:23:04,VALID,1004.52,VALID,0,VALID,84.467,VALID,0,VALID,25.9817,VALID,31,VALID,0.895703,
2012-06-20, 00:24:04,VALID,1004.48,VALID,0,VALID,84.2762,VALID,0,VALID,26.0401,VALID,23,VALID,0.868359,
2012-06-20, 00:25:04,VALID,1004.5,VALID,0,VALID,83.8109,VALID,0,VALID,26.0985,VALID,15,VALID,0.566406,
2012-06-20, 00:26:04,VALID,1004.49,VALID,0,VALID,83.7346,VALID,0,VALID,26.116,VALID,25,VALID,0.792578,
2012-06-20, 00:27:04,VALID,1004.48,VALID,0,VALID,83.8719,VALID,0,VALID,26.118,VALID,22,VALID,0.807031,
2012-06-20, 00:28:04,VALID,1004.49,VALID,0,VALID,83.9253,VALID,0,VALID,26.118,VALID,22,VALID,0.801562,
2012-06-20, 00:29:04,VALID,1004.48,VALID,0,VALID,83.8643,VALID,0,VALID,26.1375,VALID,13,VALID,0.789844,
2012-06-20, 00:30:04,VALID,1004.45,VALID,0,VALID,83.7422,VALID,0,VALID,26.118,VALID,11,VALID,0.73125,
2012-06-20, 00:31:04,VALID,1004.5,VALID,0,VALID,83.8185,VALID,0,VALID,26.0985,VALID,12,VALID,0.81875,
2012-06-20, 00:32:04,VALID,1004.48,VALID,0,VALID,83.4828,VALID,0,VALID,26.1765,VALID,36,VALID,0.651172,
2012-06-20, 00:33:04,VALID,1004.44,VALID,0,VALID,83.2997,VALID,0,VALID,26.1745,VALID,33,VALID,0.603516,
2012-06-20, 00:34:04,VALID,1004.46,VALID,0,VALID,83.3684,VALID,0,VALID,26.1959,VALID,27,VALID,0.615234,
2012-06-20, 00:35:04,VALID,1004.46,VALID,0,VALID,83.4218,VALID,0,VALID,26.1765,VALID,27,VALID,0.614062,
2012-06-20, 00:36:04,VALID,1004.43,VALID,0,VALID,83.2616,VALID,0,VALID,26.1784,VALID,355,VALID,0.841016,
2012-06-20, 00:37:04,VALID,1004.44,VALID,0,VALID,83.3837,VALID,0,VALID,26.1959,VALID,354,VALID,0.566016,
2012-06-20, 00:38:04,VALID,1004.45,VALID,0,VALID,83.1624,VALID,0,VALID,26.1959,VALID,348,VALID,0.684766,
2012-06-20, 00:39:04,VALID,1004.49,VALID,0,VALID,83.3989,VALID,0,VALID,26.2369,VALID,348,VALID,0.262891,
2012-06-20, 00:40:04,VALID,1004.49,VALID,0,VALID,83.6049,VALID,0,VALID,26.1765,VALID,347,VALID,0.442187,
2012-06-20, 00:41:04,VALID,1004.54,VALID,0,VALID,83.9635,VALID,0,VALID,26.1375,VALID,347,VALID,0.453906,
2012-06-20, 00:42:04,VALID,1004.53,VALID,0,VALID,84.5127,VALID,0,VALID,26.0187,VALID,342,VALID,0.375781,
2012-06-20, 00:43:04,VALID,1004.51,VALID,0,VALID,85.0391,VALID,0,VALID,25.9427,VALID,342,VALID,0.580859,
2012-06-20, 00:44:04,VALID,1004.5,VALID,0,VALID,85.6189,VALID,0,VALID,25.8044,VALID,343,VALID,0.553516,
2012-06-20, 00:45:04,VALID,1004.52,VALID,0,VALID,86.3208,VALID,0,VALID,25.6681,VALID,342,VALID,0.613672,
2012-06-20, 00:46:04,VALID,1004.52,VALID,0,VALID,86.8472,VALID,0,VALID,25.5532,VALID,342,VALID,0.316406,
2012-06-20, 00:47:04,VALID,1004.51,VALID,0,VALID,87.2057,VALID,0,VALID,25.4753,VALID,342,VALID,0.4,
2012-06-20, 00:48:04,VALID,1004.49,VALID,0,VALID,87.5338,VALID,0,VALID,25.3974,VALID,342,VALID,0.395703,
2012-06-20, 00:49:04,VALID,1004.47,VALID,0,VALID,87.8466,VALID,0,VALID,25.3195,VALID,342,VALID,0.465625,
2012-06-20, 00:50:04,VALID,1004.49,VALID,0,VALID,88.228,VALID,0,VALID,25.2806,VALID,342,VALID,0.575,
2012-06-20, 00:51:04,VALID,1004.46,VALID,0,VALID,88.495,VALID,0,VALID,25.1813,VALID,341,VALID,0.622656,
2012-06-20, 00:52:04,VALID,1004.44,VALID,0,VALID,88.8002,VALID,0,VALID,25.1637,VALID,341,VALID,0.697266,
2012-06-20, 00:53:04,VALID,1004.42,VALID,0,VALID,89.0977,VALID,0,VALID,25.0839,VALID,342,VALID,0.756641,
2012-06-20, 00:54:04,VALID,1004.41,VALID,0,VALID,89.4028,VALID,0,VALID,25.0469,VALID,341,VALID,0.571094,
2012-06-20, 00:55:04,VALID,1004.39,VALID,0,VALID,89.647,VALID,0,VALID,24.9671,VALID,342,VALID,0.632031,
2012-06-20, 00:56:04,VALID,1004.36,VALID,0,VALID,89.9064,VALID,0,VALID,24.9282,VALID,342,VALID,0.814062,
2012-06-20, 00:57:04,VALID,1004.37,VALID,0,VALID,90.1657,VALID,0,VALID,24.8716,VALID,340,VALID,0.686328,
2012-06-20, 00:58:04,VALID,1004.32,VALID,0,VALID,90.3412,VALID,0,VALID,24.8327,VALID,344,VALID,0.495313,
2012-06-20, 00:59:04,VALID,1004.3,VALID,0,VALID,90.5701,VALID,0,VALID,24.7724,VALID,344,VALID,0.621094,
2012-06-20, 01:00:04,VALID,1004.28,VALID,0,VALID,90.8371,VALID,0,VALID,24.7548,VALID,345,VALID,0.536719,
2012-06-20, 01:01:04,VALID,1004.26,VALID,0,VALID,90.9057,VALID,0,VALID,24.7353,VALID,347,VALID,0.516797,
2012-06-20, 01:02:04,VALID,1004.23,VALID,0,VALID,90.9363,VALID,0,VALID,24.6964,VALID,347,VALID,0.399609,
2012-06-20, 01:03:04,VALID,1004.24,VALID,0,VALID,91.0278,VALID,0,VALID,24.6574,VALID,347,VALID,0.313281,
2012-06-20, 01:04:04,VALID,1004.21,VALID,0,VALID,91.1956,VALID,0,VALID,24.6361,VALID,347,VALID,0.656641,
2012-06-20, 01:05:04,VALID,1004.2,VALID,0,VALID,91.2872,VALID,0,VALID,24.638,VALID,347,VALID,0.400391,
2012-06-20, 01:06:04,VALID,1004.22,VALID,0,VALID,91.333,VALID,0,VALID,24.599,VALID,347,VALID,0.667188,
2012-06-20, 01:07:04,VALID,1004.18,VALID,0,VALID,91.4398,VALID,0,VALID,24.5582,VALID,347,VALID,0.488672,
2012-06-20, 01:08:04,VALID,1004.17,VALID,0,VALID,91.4779,VALID,0,VALID,24.5582,VALID,347,VALID,0.722656,
2012-06-20, 01:09:04,VALID,1004.15,VALID,0,VALID,91.5618,VALID,0,VALID,24.5601,VALID,343,VALID,0.521094,
2012-06-20, 01:10:04,VALID,1004.12,VALID,0,VALID,91.5618,VALID,0,VALID,24.5193,VALID,342,VALID,0.491797,
2012-06-20, 01:11:04,VALID,1004.08,VALID,0,VALID,91.6305,VALID,0,VALID,24.4998,VALID,349,VALID,0.68125,
2012-06-20, 01:12:04,VALID,1004.03,VALID,0,VALID,91.722,VALID,0,VALID,24.4998,VALID,349,VALID,0.241016,
2012-06-20, 01:13:04,VALID,1004,VALID,0,VALID,91.8365,VALID,0,VALID,24.5193,VALID,349,VALID,0.110156,
2012-06-20, 01:14:04,VALID,1003.99,VALID,0,VALID,91.928,VALID,0,VALID,24.5388,VALID,349,VALID,0.511719,
2012-06-20, 01:15:04,VALID,1003.97,VALID,0,VALID,91.8288,VALID,0,VALID,24.5601,VALID,349,VALID,0.357031,
2012-06-20, 01:16:04,VALID,1003.93,VALID,0,VALID,91.8365,VALID,0,VALID,24.5582,VALID,348,VALID,0.411719,
2012-06-20, 01:17:04,VALID,1003.93,VALID,0,VALID,91.6763,VALID,0,VALID,24.6185,VALID,348,VALID,0.341797,
2012-06-20, 01:18:04,VALID,1003.94,VALID,0,VALID,91.5542,VALID,0,VALID,24.5972,VALID,348,VALID,0.390625,
2012-06-20, 01:19:04,VALID,1003.93,VALID,0,VALID,91.4398,VALID,0,VALID,24.6166,VALID,348,VALID,0.492578,
2012-06-20, 01:20:04,VALID,1003.91,VALID,0,VALID,91.3177,VALID,0,VALID,24.5972,VALID,348,VALID,0.495313,
2012-06-20, 01:21:04,VALID,1003.88,VALID,0,VALID,91.2109,VALID,0,VALID,24.6185,VALID,347,VALID,0.563281,
2012-06-20, 01:22:04,VALID,1003.86,VALID,0,VALID,91.3253,VALID,0,VALID,24.5777,VALID,347,VALID,0.631641,
2012-06-20, 01:23:04,VALID,1003.87,VALID,0,VALID,91.3101,VALID,0,VALID,24.5777,VALID,346,VALID,0.505469,
2012-06-20, 01:24:04,VALID,1003.9,VALID,0,VALID,91.3711,VALID,0,VALID,24.5601,VALID,346,VALID,0.41875,
2012-06-20, 01:25:04,VALID,1003.88,VALID,0,VALID,91.3864,VALID,0,VALID,24.5388,VALID,346,VALID,0.492188,
2012-06-20, 01:26:04,VALID,1003.91,VALID,0,VALID,91.5313,VALID,0,VALID,24.4998,VALID,346,VALID,0.565234,
2012-06-20, 01:27:04,VALID,1003.88,VALID,0,VALID,91.6229,VALID,0,VALID,24.4998,VALID,347,VALID,0.476172,
2012-06-20, 01:28:04,VALID,1003.88,VALID,0,VALID,91.7525,VALID,0,VALID,24.5017,VALID,347,VALID,0.378516,
2012-06-20, 01:29:04,VALID,1003.88,VALID,0,VALID,91.8365,VALID,0,VALID,24.5212,VALID,347,VALID,0.497266,
2012-06-20, 01:30:05,VALID,1003.9,VALID,0,VALID,91.867,VALID,0,VALID,24.5212,VALID,348,VALID,0.60625,
2012-06-20, 01:31:05,VALID,1003.89,VALID,0,VALID,91.8899,VALID,0,VALID,24.4998,VALID,350,VALID,0.638672,
2012-06-20, 01:32:05,VALID,1003.91,VALID,0,VALID,91.8136,VALID,0,VALID,24.4804,VALID,351,VALID,0.596094,
2012-06-20, 01:33:05,VALID,1003.88,VALID,0,VALID,91.928,VALID,0,VALID,24.4804,VALID,348,VALID,0.565234,
2012-06-20, 01:34:05,VALID,1003.9,VALID,0,VALID,91.8746,VALID,0,VALID,24.4822,VALID,343,VALID,0.551953,
2012-06-20, 01:35:05,VALID,1003.86,VALID,0,VALID,91.7907,VALID,0,VALID,24.4609,VALID,343,VALID,0.548437,
2012-06-20, 01:36:05,VALID,1003.87,VALID,0,VALID,91.9051,VALID,0,VALID,24.4822,VALID,343,VALID,0.488281,
2012-06-20, 01:37:05,VALID,1003.88,VALID,0,VALID,91.8822,VALID,0,VALID,24.4628,VALID,345,VALID,0.724609,
2012-06-20, 01:38:05,VALID,1003.87,VALID,0,VALID,91.9356,VALID,0,VALID,24.4822,VALID,347,VALID,0.564844,
2012-06-20, 01:39:05,VALID,1003.9,VALID,0,VALID,91.9509,VALID,0,VALID,24.4414,VALID,347,VALID,0.586328,
2012-06-20, 01:40:05,VALID,1003.9,VALID,0,VALID,92.0501,VALID,0.0815089,VALID,24.4414,VALID,347,VALID,0.621094,
2012-06-20, 01:41:05,VALID,1003.93,VALID,0,VALID,92.0348,VALID,0,VALID,24.422,VALID,347,VALID,0.395312,
2012-06-20, 01:42:05,VALID,1003.92,VALID,0,VALID,92.1187,VALID,0,VALID,24.4025,VALID,347,VALID,0.421484,
2012-06-20, 01:43:05,VALID,1003.93,VALID,0,VALID,92.1874,VALID,0.0815089,VALID,24.4025,VALID,347,VALID,0.363281,
2012-06-20, 01:44:05,VALID,1003.92,VALID,0,VALID,92.2408,VALID,0,VALID,24.4025,VALID,347,VALID,0.313672,
2012-06-20, 01:45:05,VALID,1003.9,VALID,0,VALID,92.2789,VALID,0,VALID,24.383,VALID,347,VALID,0.292578,
2012-06-20, 01:46:05,VALID,1003.89,VALID,0,VALID,92.3247,VALID,0.0815089,VALID,24.3636,VALID,347,VALID,0.410156,
2012-06-20, 01:47:05,VALID,1003.87,VALID,0,VALID,92.4468,VALID,0,VALID,24.3636,VALID,347,VALID,0.480469,
2012-06-20, 01:48:05,VALID,1003.85,VALID,0,VALID,92.4849,VALID,0,VALID,24.3654,VALID,347,VALID,0.386719,
2012-06-20, 01:49:05,VALID,1003.84,VALID,0,VALID,92.5231,VALID,0,VALID,24.3246,VALID,347,VALID,0.305469,
2012-06-20, 01:50:05,VALID,1003.85,VALID,0,VALID,92.5841,VALID,0,VALID,24.3246,VALID,347,VALID,0.4,
2012-06-20, 01:51:05,VALID,1003.83,VALID,0,VALID,92.6528,VALID,0.0815089,VALID,24.3052,VALID,347,VALID,0.346875,
2012-06-20, 01:52:05,VALID,1003.82,VALID,0,VALID,92.7367,VALID,0,VALID,24.3265,VALID,347,VALID,0.419922,
2012-06-20, 01:53:05,VALID,1003.82,VALID,0,VALID,92.7824,VALID,0,VALID,24.3052,VALID,347,VALID,0.414063,
2012-06-20, 01:54:05,VALID,1003.82,VALID,0,VALID,92.7977,VALID,0,VALID,24.2857,VALID,347,VALID,0.446875,
2012-06-20, 01:55:05,VALID,1003.81,VALID,0,VALID,92.7977,VALID,0,VALID,24.2449,VALID,355,VALID,0.429297,
2012-06-20, 01:56:05,VALID,1003.79,VALID,0,VALID,92.8206,VALID,0,VALID,24.2468,VALID,355,VALID,0.382813,
2012-06-20, 01:57:05,VALID,1003.78,VALID,0,VALID,92.9579,VALID,0.0815089,VALID,24.2662,VALID,355,VALID,0.527344,
2012-06-20, 01:58:05,VALID,1003.8,VALID,0,VALID,93.0113,VALID,0.0815089,VALID,24.2662,VALID,355,VALID,0.378125,
2012-06-20, 01:59:05,VALID,1003.76,VALID,0,VALID,92.9884,VALID,0.0815089,VALID,24.2273,VALID,355,VALID,0.444531,
2012-06-20, 02:00:05,VALID,1003.74,VALID,0,VALID,93.1257,VALID,0,VALID,24.2273,VALID,356,VALID,0.621484,
2012-06-20, 02:01:05,VALID,1003.75,VALID,0,VALID,93.1868,VALID,0,VALID,24.2468,VALID,356,VALID,0.574219,
2012-06-20, 02:02:05,VALID,1003.73,VALID,0,VALID,93.1029,VALID,0.0815089,VALID,24.2273,VALID,356,VALID,0.405859,
2012-06-20, 02:03:05,VALID,1003.71,VALID,0,VALID,93.0952,VALID,0.0815089,VALID,24.1865,VALID,356,VALID,0.488672,
2012-06-20, 02:04:05,VALID,1003.73,VALID,0,VALID,93.0342,VALID,0.0815089,VALID,24.1476,VALID,356,VALID,0.435547,
2012-06-20, 02:05:05,VALID,1003.74,VALID,0,VALID,93.0571,VALID,0,VALID,24.1494,VALID,356,VALID,0.516406,
2012-06-20, 02:06:05,VALID,1003.75,VALID,0,VALID,93.0571,VALID,0,VALID,24.1105,VALID,356,VALID,0.510156,
2012-06-20, 02:07:05,VALID,1003.76,VALID,0,VALID,93.1105,VALID,0,VALID,24.091,VALID,356,VALID,0.399609,
2012-06-20, 02:08:05,VALID,1003.8,VALID,0,VALID,93.1486,VALID,0,VALID,24.0716,VALID,356,VALID,0.408984,
2012-06-20, 02:09:05,VALID,1003.78,VALID,0,VALID,93.2859,VALID,0,VALID,24.0521,VALID,356,VALID,0.344531,
2012-06-20, 02:10:05,VALID,1003.8,VALID,0,VALID,93.3622,VALID,0,VALID,24.0521,VALID,356,VALID,0.464453,
2012-06-20, 02:11:05,VALID,1003.8,VALID,0,VALID,93.3928,VALID,0.0815089,VALID,24.0716,VALID,356,VALID,0.494531,
2012-06-20, 02:12:05,VALID,1003.81,VALID,0,VALID,93.4233,VALID,0,VALID,24.0716,VALID,356,VALID,0.540234,
2012-06-20, 02:13:05,VALID,1003.77,VALID,0,VALID,93.3851,VALID,0,VALID,24.0521,VALID,356,VALID,0.504297,
2012-06-20, 02:14:05,VALID,1003.75,VALID,0,VALID,93.4462,VALID,0,VALID,24.0326,VALID,356,VALID,0.482422,
2012-06-20, 02:15:05,VALID,1003.74,VALID,0,VALID,93.5606,VALID,0,VALID,24.0503,VALID,356,VALID,0.45,
2012-06-20, 02:16:05,VALID,1003.73,VALID,0,VALID,93.6521,VALID,0,VALID,24.091,VALID,356,VALID,0.454297,
2012-06-20, 02:17:05,VALID,1003.72,VALID,0,VALID,93.6216,VALID,0,VALID,24.091,VALID,356,VALID,0.655469,
2012-06-20, 02:18:05,VALID,1003.71,VALID,0,VALID,93.469,VALID,0,VALID,24.0716,VALID,356,VALID,0.515234,
2012-06-20, 02:19:05,VALID,1003.7,VALID,0,VALID,93.4462,VALID,0,VALID,24.0521,VALID,356,VALID,0.538281,
2012-06-20, 02:20:05,VALID,1003.72,VALID,0,VALID,93.4614,VALID,0.0815089,VALID,24.0539,VALID,356,VALID,0.499219,
2012-06-20, 02:21:05,VALID,1003.73,VALID,0,VALID,93.5301,VALID,0.0815089,VALID,24.0114,VALID,356,VALID,0.373437,
2012-06-20, 02:22:05,VALID,1003.72,VALID,0,VALID,93.5758,VALID,0,VALID,24.0345,VALID,356,VALID,0.432813,
2012-06-20, 02:23:05,VALID,1003.75,VALID,0,VALID,93.6216,VALID,0,VALID,24.0326,VALID,356,VALID,0.444922,
2012-06-20, 02:24:05,VALID,1003.74,VALID,0,VALID,93.5758,VALID,0,VALID,24.0132,VALID,356,VALID,0.380078,
2012-06-20, 02:25:05,VALID,1003.73,VALID,0,VALID,93.5835,VALID,0,VALID,23.9937,VALID,356,VALID,0.386328,
2012-06-20, 02:26:05,VALID,1003.73,VALID,0,VALID,93.614,VALID,0,VALID,23.9937,VALID,356,VALID,0.375391,
2012-06-20, 02:27:05,VALID,1003.73,VALID,0,VALID,93.614,VALID,0,VALID,23.9742,VALID,356,VALID,0.419922,
2012-06-20, 02:28:05,VALID,1003.71,VALID,0,VALID,93.6369,VALID,0,VALID,23.9955,VALID,356,VALID,0.535937,
2012-06-20, 02:29:05,VALID,1003.73,VALID,0,VALID,93.6903,VALID,0,VALID,23.9742,VALID,356,VALID,0.482031,
2012-06-20, 02:30:05,VALID,1003.73,VALID,0,VALID,93.7208,VALID,0,VALID,23.9742,VALID,356,VALID,0.536328,
2012-06-20, 02:31:05,VALID,1003.72,VALID,0,VALID,93.7132,VALID,0,VALID,23.9742,VALID,356,VALID,0.368359,
2012-06-20, 02:32:05,VALID,1003.72,VALID,0,VALID,93.7132,VALID,0,VALID,23.9548,VALID,356,VALID,0.392969,
2012-06-20, 02:33:05,VALID,1003.73,VALID,0,VALID,93.7208,VALID,0,VALID,23.9548,VALID,356,VALID,0.395312,
2012-06-20, 02:34:05,VALID,1003.7,VALID,0,VALID,93.7284,VALID,0,VALID,23.9353,VALID,356,VALID,0.367969,
2012-06-20, 02:35:05,VALID,1003.72,VALID,0,VALID,93.7208,VALID,0,VALID,23.9353,VALID,356,VALID,0.410937,
2012-06-20, 02:36:05,VALID,1003.69,VALID,0,VALID,93.7513,VALID,0,VALID,23.9353,VALID,356,VALID,0.347656,
2012-06-20, 02:37:05,VALID,1003.67,VALID,0,VALID,93.7284,VALID,0.0815089,VALID,23.9353,VALID,356,VALID,0.457031,
2012-06-20, 02:38:05,VALID,1003.66,VALID,0,VALID,93.7513,VALID,0,VALID,23.9159,VALID,356,VALID,0.403125,
2012-06-20, 02:39:05,VALID,1003.67,VALID,0,VALID,93.6903,VALID,0.0815089,VALID,23.9353,VALID,356,VALID,0.491016,
2012-06-20, 02:40:05,VALID,1003.65,VALID,0,VALID,93.7132,VALID,0,VALID,23.9353,VALID,356,VALID,0.535156,
2012-06-20, 02:41:05,VALID,1003.69,VALID,0,VALID,93.7437,VALID,0,VALID,23.9159,VALID,356,VALID,0.450391,
2012-06-20, 02:42:05,VALID,1003.73,VALID,0,VALID,93.7437,VALID,0,VALID,23.9159,VALID,356,VALID,0.549219,
2012-06-20, 02:43:05,VALID,1003.77,VALID,0,VALID,93.7666,VALID,0,VALID,23.914,VALID,356,VALID,0.383594,
2012-06-20, 02:44:05,VALID,1003.78,VALID,0,VALID,93.6903,VALID,0,VALID,23.9159,VALID,356,VALID,0.387109,
2012-06-20, 02:45:05,VALID,1003.84,VALID,0,VALID,93.6064,VALID,0.0815089,VALID,23.8751,VALID,356,VALID,0.300391,
2012-06-20, 02:46:05,VALID,1003.86,VALID,0,VALID,93.5682,VALID,0,VALID,23.8769,VALID,356,VALID,0.408594,
2012-06-20, 02:47:05,VALID,1003.88,VALID,0,VALID,93.7055,VALID,0.0815089,VALID,23.8769,VALID,356,VALID,0.182422,
2012-06-20, 02:48:05,VALID,1003.91,VALID,0,VALID,93.6903,VALID,0.0815089,VALID,23.8556,VALID,356,VALID,0,
2012-06-20, 02:49:05,VALID,1003.91,VALID,0,VALID,93.7055,VALID,0,VALID,23.8769,VALID,356,VALID,0,
2012-06-20, 02:50:05,VALID,1003.94,VALID,0,VALID,93.6979,VALID,0.0815089,VALID,23.8556,VALID,356,VALID,0,
2012-06-20, 02:51:05,VALID,1003.97,VALID,0,VALID,93.6826,VALID,0.0815089,VALID,23.8769,VALID,356,VALID,0,
2012-06-20, 02:52:05,VALID,1003.96,VALID,0,VALID,93.6826,VALID,0,VALID,23.8575,VALID,356,VALID,0.171875,
2012-06-20, 02:53:05,VALID,1004.01,VALID,0,VALID,93.6979,VALID,0,VALID,23.8787,VALID,356,VALID,0,
2012-06-20, 02:54:05,VALID,1004.01,VALID,0,VALID,93.7742,VALID,0,VALID,23.8769,VALID,356,VALID,0,
2012-06-20, 02:55:05,VALID,1004,VALID,0,VALID,93.7895,VALID,0,VALID,23.8751,VALID,356,VALID,0,
2012-06-20, 02:56:05,VALID,1004.04,VALID,0,VALID,93.8047,VALID,0,VALID,23.8946,VALID,356,VALID,0,
2012-06-20, 02:57:05,VALID,1004.06,VALID,0,VALID,93.7895,VALID,0,VALID,23.9566,VALID,356,VALID,0,
2012-06-20, 02:58:05,VALID,1004.07,VALID,0,VALID,93.6903,VALID,0,VALID,23.9159,VALID,356,VALID,0,
2012-06-20, 02:59:05,VALID,1004.13,VALID,0,VALID,93.6674,VALID,0,VALID,23.9371,VALID,356,VALID,0,
2012-06-20, 03:00:05,VALID,1004.13,VALID,0,VALID,93.6903,VALID,0.0815089,VALID,23.9159,VALID,356,VALID,0,
2012-06-20, 03:01:05,VALID,1004.12,VALID,0,VALID,93.6521,VALID,0,VALID,23.9159,VALID,356,VALID,0,
2012-06-20, 03:02:05,VALID,1004.13,VALID,0,VALID,93.5987,VALID,0,VALID,23.8964,VALID,356,VALID,0,
2012-06-20, 03:03:05,VALID,1004.15,VALID,0,VALID,93.5377,VALID,0.0815089,VALID,23.8556,VALID,356,VALID,0,
2012-06-20, 03:04:05,VALID,1004.13,VALID,0,VALID,93.5453,VALID,0,VALID,23.8575,VALID,356,VALID,0,
2012-06-20, 03:05:05,VALID,1004.15,VALID,0,VALID,93.5758,VALID,0,VALID,23.8575,VALID,356,VALID,0,
2012-06-20, 03:06:05,VALID,1004.16,VALID,0,VALID,93.6064,VALID,0,VALID,23.8769,VALID,356,VALID,0,
2012-06-20, 03:07:05,VALID,1004.14,VALID,0,VALID,93.675,VALID,0.0815089,VALID,23.8575,VALID,356,VALID,0,
2012-06-20, 03:08:05,VALID,1004.14,VALID,0,VALID,93.7361,VALID,0,VALID,23.8751,VALID,356,VALID,0,
2012-06-20, 03:09:05,VALID,1004.15,VALID,0,VALID,93.82,VALID,0,VALID,23.914,VALID,356,VALID,0,
2012-06-20, 03:10:05,VALID,1004.2,VALID,0,VALID,93.82,VALID,0,VALID,23.9566,VALID,356,VALID,0,
2012-06-20, 03:11:05,VALID,1004.19,VALID,0,VALID,93.7742,VALID,0,VALID,23.9548,VALID,356,VALID,0,
2012-06-20, 03:12:05,VALID,1004.22,VALID,0,VALID,93.7513,VALID,0,VALID,23.953,VALID,356,VALID,0,
2012-06-20, 03:13:05,VALID,1004.22,VALID,0,VALID,93.7361,VALID,0.0815089,VALID,23.9937,VALID,356,VALID,0,
2012-06-20, 03:14:05,VALID,1004.25,VALID,0,VALID,93.7437,VALID,0,VALID,23.9937,VALID,356,VALID,0,
2012-06-20, 03:15:05,VALID,1004.25,VALID,0,VALID,93.7361,VALID,0,VALID,24.0132,VALID,356,VALID,0,
2012-06-20, 03:16:05,VALID,1004.24,VALID,0,VALID,93.675,VALID,0,VALID,24.0345,VALID,356,VALID,0,
2012-06-20, 03:17:05,VALID,1004.28,VALID,0,VALID,93.6826,VALID,0,VALID,24.0132,VALID,356,VALID,0,
2012-06-20, 03:18:05,VALID,1004.29,VALID,0,VALID,93.7208,VALID,0,VALID,24.0326,VALID,356,VALID,0,
2012-06-20, 03:19:05,VALID,1004.25,VALID,0,VALID,93.6979,VALID,0,VALID,24.0521,VALID,356,VALID,0,
2012-06-20, 03:20:05,VALID,1004.27,VALID,0,VALID,93.7208,VALID,0,VALID,24.0716,VALID,356,VALID,0,
2012-06-20, 03:21:05,VALID,1004.29,VALID,0,VALID,93.7742,VALID,0,VALID,24.1105,VALID,356,VALID,0,
2012-06-20, 03:22:05,VALID,1004.28,VALID,0,VALID,93.8352,VALID,0,VALID,24.1087,VALID,356,VALID,0,
2012-06-20, 03:23:05,VALID,1004.27,VALID,0,VALID,93.8429,VALID,0,VALID,24.1689,VALID,356,VALID,0,
2012-06-20, 03:24:05,VALID,1004.26,VALID,0,VALID,93.8505,VALID,0,VALID,24.2078,VALID,356,VALID,0,
2012-06-20, 03:25:05,VALID,1004.25,VALID,0,VALID,93.8352,VALID,0.0815089,VALID,24.2273,VALID,356,VALID,0,
2012-06-20, 03:26:05,VALID,1004.25,VALID,0,VALID,93.8429,VALID,0,VALID,24.2662,VALID,356,VALID,0,
2012-06-20, 03:27:05,VALID,1004.27,VALID,0,VALID,93.8047,VALID,0,VALID,24.2857,VALID,356,VALID,0,
2012-06-20, 03:28:05,VALID,1004.26,VALID,0,VALID,93.7742,VALID,0.0815089,VALID,24.3052,VALID,356,VALID,0,
2012-06-20, 03:29:05,VALID,1004.27,VALID,0,VALID,93.7284,VALID,0.0815089,VALID,24.3422,VALID,356,VALID,0,
2012-06-20, 03:30:05,VALID,1004.27,VALID,0,VALID,93.7132,VALID,0,VALID,24.383,VALID,356,VALID,0,
2012-06-20, 03:31:05,VALID,1004.25,VALID,0,VALID,93.6903,VALID,0,VALID,24.4006,VALID,356,VALID,0,
2012-06-20, 03:32:05,VALID,1004.23,VALID,0,VALID,93.6292,VALID,0,VALID,24.422,VALID,356,VALID,0,
2012-06-20, 03:33:05,VALID,1004.25,VALID,0,VALID,93.5072,VALID,0,VALID,24.422,VALID,356,VALID,0,
2012-06-20, 03:34:05,VALID,1004.19,VALID,0,VALID,93.3851,VALID,0.0815089,VALID,24.422,VALID,356,VALID,0,
2012-06-20, 03:35:05,VALID,1004.15,VALID,0,VALID,93.3241,VALID,0,VALID,24.4414,VALID,356,VALID,0,
2012-06-20, 03:36:05,VALID,1004.14,VALID,0,VALID,93.2783,VALID,0,VALID,24.4396,VALID,354,VALID,0,
2012-06-20, 03:37:05,VALID,1004.15,VALID,0,VALID,93.1944,VALID,0,VALID,24.4804,VALID,354,VALID,0,
2012-06-20, 03:38:05,VALID,1004.12,VALID,0,VALID,93.141,VALID,0,VALID,24.4804,VALID,346,VALID,0,
2012-06-20, 03:39:05,VALID,1004.12,VALID,0,VALID,93.0876,VALID,0,VALID,24.4804,VALID,345,VALID,0.812891,
2012-06-20, 03:40:05,VALID,1004.12,VALID,0,VALID,93.0571,VALID,0,VALID,24.4998,VALID,344,VALID,0.640625,
2012-06-20, 03:41:05,VALID,1004.1,VALID,0,VALID,93.0037,VALID,0,VALID,24.5212,VALID,343,VALID,0.778125,
2012-06-20, 03:42:05,VALID,1004.13,VALID,0,VALID,92.9579,VALID,0,VALID,24.498,VALID,343,VALID,0.597266,
2012-06-20, 03:43:05,VALID,1004.15,VALID,0,VALID,92.8664,VALID,0,VALID,24.4998,VALID,343,VALID,0.554688,
2012-06-20, 03:44:05,VALID,1004.15,VALID,0,VALID,92.8282,VALID,0,VALID,24.5193,VALID,343,VALID,0.671875,
2012-06-20, 03:45:05,VALID,1004.13,VALID,0,VALID,92.7443,VALID,0,VALID,24.5388,VALID,343,VALID,0.511328,